Location: Bremen
(53.0793°N, 8.8017°E)
Time: 23:23:13
(UTC+02:00)

Vanguard 2 Rocket - Pass Details

Date: 21 April 2024
Orbit: 556 x 3304 km, 32.9° (Epoch: 20 May)

Event Time Altitude Azimuth Distance (km) Brightness Sun altitude
Rises 04:13:08 0° 270° (W) 7,278 11.1 -15.5°
Reaches altitude 10° 04:19:38 10° 259° (W) 6,242 10.7 -14.9°
Maximum altitude 04:32:42 23° 217° (SW) 4,775 9.9 -13.4°
Drops below altitude 10° 04:43:28 10° 173° (S) 5,034 10.4 -12.2°
Sets 04:47:58 0° 160° (SSE) 5,617 10.7 -11.7°
